Date String (YYYY-MM-DD hh:mm:ss) UTC,Instrument flags,absolute air pressure of the measurement (hPa),sample flow rate (lpm),inlet stack bypass flow (lpm),air temperature of the measurement (°C),ambient temperature measured by the external sensor (°C),aerosol sample conditioner tube jacket temperature (°C),OPC LED temperature (°C),internal box temperature (°C),relative humidity of the measurement (%),span deviation,mass concentration of particles derived from Lorenz-Mie calculation of OPC scattering (μg/m³),mass concentration of particles derived from Lorenz-Mie calculation of OPC scattering (μg/m³),mass concentration of particles derived from Lorenz-Mie calculation of OPC scattering (μg/m³)
DateTimeUTC,F1_M11,P_M11,Q1_M11,Q2_M11,T1_M11,T2_M11,T3_M11,T4_M11,T5_M11,U1_M11,ZSPAN_M11,X0_M11,X2_M11,X1_M11
2023-10-25 00:00:00,SystemResetWarning,0825.6,5.01,000.00,028.7,027.6,000.0,037.0,030.5,19.3,0000.0,0033.47,0009.30,0006.38
2023-10-25 00:01:00,SystemResetWarning,0825.6,5.00,000.00,028.7,027.7,000.0,037.1,030.5,19.2,0005.6,0032.72,0009.39,0006.41
2023-10-25 00:02:00,SystemResetWarning,0825.7,4.99,000.00,028.8,027.7,000.0,037.1,030.5,19.1,0004.1,0033.94,0009.35,0006.44
2023-10-25 00:03:00,SystemResetWarning,0825.7,4.99,000.00,028.8,026.9,000.0,037.1,030.5,18.9,0002.3,0034.22,0009.34,0006.45
2023-10-25 00:04:00,SystemResetWarning,0825.7,5.01,000.00,028.7,025.1,000.0,037.0,030.3,18.9,0002.8,0034.22,0009.37,0006.45
2023-10-25 00:05:00,SystemResetWarning,0825.7,5.01,000.00,028.7,024.7,000.0,037.0,030.2,19.0,0001.7,0034.27,0009.45,0006.48
2023-10-25 00:06:00,SystemResetWarning,0825.7,5.01,000.00,028.6,024.9,000.0,037.0,030.0,19.1,0002.0,0035.42,0009.58,0006.51
2023-10-25 00:07:00,SystemResetWarning,0825.7,4.99,000.00,028.5,025.3,000.0,037.0,030.0,19.1,0003.3,0035.18,0009.58,0006.53
2023-10-25 00:08:00,SystemResetWarning,0825.7,5.00,000.00,028.5,025.7,000.0,037.0,030.0,19.2,0002.9,0034.82,0009.61,0006.54
2023-10-25 00:09:00,SystemResetWarning,0825.7,5.01,000.00,028.5,026.0,000.0,037.0,030.1,19.2,0001.2,0034.80,0009.63,0006.52
2023-10-25 00:10:00,SystemResetWarning,0825.7,5.00,000.00,028.5,026.3,000.0,037.0,030.1,19.1,0001.0,0032.62,0009.59,0006.49
2023-10-25 00:11:00,SystemResetWarning,0825.7,4.99,000.00,028.5,026.6,000.0,037.0,030.1,19.1,0000.4,0032.21,0009.51,0006.43
2023-10-25 00:12:00,SystemResetWarning,0825.7,4.99,000.00,028.5,026.8,000.0,037.0,030.2,19.1,0001.1,0031.50,0009.38,0006.39
2023-10-25 00:13:00,SystemResetWarning,0825.7,5.00,000.00,028.5,027.0,000.0,037.0,030.2,19.1,0000.2,0030.59,0009.35,0006.34
2023-10-25 00:14:00,SystemResetWarning,0825.8,5.00,000.00,028.6,027.2,000.0,037.0,030.3,19.0,0001.4,0031.69,0009.29,0006.32
2023-10-25 00:15:00,SystemResetWarning,0825.7,5.01,000.00,028.6,027.3,000.0,037.0,030.3,19.0,0002.5,0032.92,0009.23,0006.31
2023-10-25 00:16:00,SystemResetWarning,0825.8,5.01,000.00,028.6,027.4,000.0,037.0,030.4,18.9,0002.8,0033.10,0009.19,0006.30
2023-10-25 00:17:00,SystemResetWarning,0825.8,5.01,000.00,028.7,027.5,000.0,037.0,030.4,18.9,0003.0,0032.01,0009.11,0006.31
2023-10-25 00:18:00,SystemResetWarning,0825.7,5.00,000.00,028.7,027.6,000.0,037.0,030.4,18.8,0002.5,0032.40,0009.13,0006.31
2023-10-25 00:19:00,SystemResetWarning,0825.8,5.00,000.00,028.7,027.7,000.0,037.1,030.5,18.8,0002.2,0033.89,0009.22,0006.33
2023-10-25 00:20:00,SystemResetWarning,0825.8,4.99,000.00,028.8,027.6,000.0,037.1,030.5,18.7,0001.8,0034.14,0009.25,0006.36
2023-10-25 00:21:00,SystemResetWarning,0825.8,4.99,000.00,028.7,026.1,000.0,037.1,030.4,18.7,0000.0,0033.70,0009.33,0006.39
2023-10-25 00:22:00,SystemResetWarning,0825.8,5.00,000.00,028.7,024.8,000.0,037.0,030.2,18.8,0000.0,0034.16,0009.36,0006.43
2023-10-25 00:23:00,SystemResetWarning,0825.8,5.01,000.00,028.6,024.7,000.0,037.0,030.0,18.9,0000.0,0034.95,0009.37,0006.46
2023-10-25 00:24:00,SystemResetWarning,0825.8,5.01,000.00,028.5,025.0,000.0,037.0,029.9,19.0,0000.0,0034.79,0009.32,0006.48
2023-10-25 00:25:00,SystemResetWarning,0825.8,5.00,000.00,028.4,025.4,000.0,037.0,029.9,19.0,0000.0,0034.48,0009.26,0006.48
2023-10-25 00:26:00,SystemResetWarning,0825.9,5.00,000.00,028.4,025.7,000.0,037.0,030.0,19.1,0000.0,0033.25,0009.27,0006.48
2023-10-25 00:27:00,SystemResetWarning,0825.9,5.00,000.00,028.4,026.1,000.0,037.0,030.0,19.1,0000.0,0031.98,0009.24,0006.48
2023-10-25 00:28:00,SystemResetWarning,0825.9,4.99,000.00,028.4,026.4,000.0,036.9,030.1,19.1,0000.0,0033.59,0009.25,0006.47
2023-10-25 00:29:00,SystemResetWarning,0825.9,5.00,000.00,028.4,026.6,000.0,036.9,030.1,19.1,0000.0,0033.88,0009.28,0006.44
2023-10-25 00:30:00,SystemResetWarning,0825.9,5.00,000.00,028.5,026.8,000.0,037.0,030.2,19.0,0000.0,0032.76,0009.26,0006.41
2023-10-25 00:31:00,SystemResetWarning,0826.0,5.00,000.00,028.5,027.0,000.0,037.0,030.2,19.0,0001.1,0032.61,0009.27,0006.38
2023-10-25 00:32:00,SystemResetWarning,0826.1,5.00,000.00,028.5,027.1,000.0,037.0,030.2,19.0,0002.8,0033.99,0009.26,0006.35
2023-10-25 00:33:00,SystemResetWarning,0826.2,5.00,000.00,028.5,027.3,000.0,037.0,030.3,19.0,0000.7,0034.00,0009.30,0006.34
2023-10-25 00:34:00,SystemResetWarning,0826.2,5.01,000.00,028.6,027.4,000.0,037.0,030.3,18.9,0000.0,0035.83,0009.37,0006.33
2023-10-25 00:35:00,SystemResetWarning,0826.2,5.00,000.00,028.6,027.5,000.0,037.0,030.3,18.9,0000.0,0036.32,0009.45,0006.32
2023-10-25 00:36:00,SystemResetWarning,0826.2,5.00,000.00,028.7,027.5,000.0,037.0,030.4,18.9,0000.0,0035.92,0009.46,0006.32
2023-10-25 00:37:00,SystemResetWarning,0826.2,5.00,000.00,028.7,027.6,000.0,037.0,030.4,18.9,0000.0,0036.47,0009.46,0006.33
2023-10-25 00:38:00,SystemResetWarning,0826.3,5.00,000.00,028.7,027.7,000.0,037.0,030.5,18.9,0000.0,0038.15,0009.61,0006.36
2023-10-25 00:39:00,SystemResetWarning,0826.3,4.99,000.00,028.8,027.7,000.0,037.1,030.5,18.8,0000.0,0036.63,0009.62,0006.39
2023-10-25 00:40:00,SystemResetWarning,0826.2,4.99,000.00,028.8,026.5,000.0,037.1,030.5,18.8,0000.0,0035.54,0009.54,0006.44
2023-10-25 00:41:00,SystemResetWarning,0826.2,5.01,000.00,028.7,024.9,000.0,037.0,030.3,18.8,0000.0,0035.87,0009.51,0006.48
2023-10-25 00:42:00,SystemResetWarning,0826.2,5.01,000.00,028.6,024.7,000.0,037.0,030.1,18.9,0000.0,0035.26,0009.53,0006.52
2023-10-25 00:43:00,SystemResetWarning,0826.2,5.01,000.00,028.5,024.9,000.0,037.0,029.9,19.1,0000.0,0034.14,0009.56,0006.58
2023-10-25 00:44:00,SystemResetWarning,0826.2,4.99,000.00,028.5,025.3,000.0,037.0,029.9,19.3,0000.0,0034.96,0009.55,0006.62
2023-10-25 00:45:00,SystemResetWarning,0826.2,5.00,000.00,028.4,025.7,000.0,037.0,030.0,19.3,0000.0,0033.38,0009.56,0006.65
2023-10-25 00:46:00,SystemResetWarning,0826.3,5.00,000.00,028.4,026.0,000.0,037.0,030.0,19.3,0000.0,0033.49,0009.60,0006.67
2023-10-25 00:47:00,SystemResetWarning,0826.3,5.00,000.00,028.4,026.3,000.0,037.0,030.1,19.3,0000.0,0033.55,0009.71,0006.70
2023-10-25 00:48:00,SystemResetWarning,0826.3,4.99,000.00,028.4,026.5,000.0,037.0,030.1,19.3,0000.7,0033.04,0009.79,0006.73
2023-10-25 00:49:00,SystemResetWarning,0826.4,4.99,000.00,028.5,026.7,000.0,037.0,030.2,19.3,0000.0,0030.11,0009.65,0006.74
2023-10-25 00:50:00,SystemResetWarning,0826.4,5.00,000.00,028.5,026.9,000.0,036.9,030.2,19.4,0000.0,0030.32,0009.71,0006.74
2023-10-25 00:51:00,SystemResetWarning,0826.4,5.01,000.00,028.5,027.1,000.0,036.9,030.2,19.3,0000.0,0031.98,0009.81,0006.72
2023-10-25 00:52:00,SystemResetWarning,0826.3,5.01,000.00,028.5,027.2,000.0,037.0,030.3,19.3,0001.2,0031.90,0009.80,0006.69
2023-10-25 00:53:00,SystemResetWarning,0826.4,5.00,000.00,028.6,027.3,000.0,037.0,030.3,19.2,0002.5,0032.77,0009.73,0006.65
2023-10-25 00:54:00,SystemResetWarning,0826.4,4.98,000.00,028.6,027.4,000.0,037.0,030.3,19.3,0003.2,0031.91,0009.67,0006.63
2023-10-25 00:55:00,SystemResetWarning,0826.5,4.99,000.00,028.6,027.4,000.0,037.0,030.4,19.5,0004.7,0031.82,0009.70,0006.63
2023-10-25 00:56:00,SystemResetWarning,0826.6,5.00,000.00,028.7,027.5,000.0,037.0,030.4,19.6,0004.8,0031.79,0009.68,0006.63
2023-10-25 00:57:00,SystemResetWarning,0826.6,5.00,000.00,028.7,027.6,000.0,037.0,030.4,19.6,0004.6,0030.71,0009.65,0006.64
2023-10-25 00:58:00,SystemResetWarning,0826.6,5.00,000.00,028.7,027.4,000.0,037.1,030.4,19.6,0002.5,0030.73,0009.65,0006.65
2023-10-25 00:59:00,SystemResetWarning,0826.6,4.99,000.00,028.7,025.6,000.0,037.0,030.3,19.6,0000.0,0032.38,0009.61,0006.64
